FW9150 Weather Reports


time (UTC)temp
F
wind
direction
speed
knots
gust
knots
rain 1hr
in
rain 24hr
in
rain mn
in
humidity
%
barometer
mb
20260508082814 50 157 0.0 0.0 0.00 0.00 0.00 67 1024.2
20260508081816 49 157 0.0 0.0 0.00 0.00 0.00 71 1024.3
20260508080813 50 157 0.0 0.0 0.00 0.00 0.00 72 1024.4
20260508075815 50 157 0.0 0.0 0.00 0.00 0.00 71 1024.5
20260508074814 50 157 0.0 0.0 0.00 0.00 0.00 71 1024.5
20260508072815 50 157 0.0 0.0 0.00 0.00 0.00 71 1024.7
20260508071816 49 157 0.0 0.0 0.00 0.00 0.00 74 1024.7
20260508070814 50 157 0.0 0.0 0.00 0.00 0.00 74 1024.7
20260508065827 50 157 0.0 0.0 0.00 0.00 0.00 76 1024.8
20260508064845 50 157 0.0 0.0 0.00 0.00 0.00 77 1024.7
20260508063826 50 157 0.0 0.0 0.00 0.00 0.00 78 1024.8
20260508062842 50 157 0.0 0.0 0.00 0.00 0.00 78 1024.9
20260508061828 50 157 0.0 0.0 0.00 0.00 0.00 79 1024.8
20260508060729 50 157 0.0 0.0 0.00 0.00 0.00 79 1024.9
20260508055727 50 157 0.0 0.0 0.00 0.00 0.00 78 1025.0
20260508054729 51 157 0.0 0.0 0.00 0.00 0.00 77 1025.0
20260508052728 52 157 0.0 0.0 0.00 0.00 0.00 78 1025.0
20260508051728 52 157 0.0 0.0 0.00 0.00 0.00 78 1025.0
20260508050827 52 157 0.0 0.0 0.00 0.00 0.00 77 1024.9
20260508045927 52 157 0.0 0.0 0.00 0.00 0.00 77 1025.1
20260508044928 53 157 0.0 0.0 0.00 0.00 0.00 76 1025.1
20260508044027 53 157 0.0 0.0 0.00 0.00 0.00 76 1024.9
20260508043126 54 157 0.0 0.0 0.00 0.00 0.00 76 1024.9
20260508042143 54 157 0.0 0.0 0.00 0.00 0.00 75 1024.8
20260508041228 54 157 0.0 0.0 0.00 0.00 0.00 74 1024.7
20260508040228 55 157 0.0 0.0 0.00 0.00 0.00 73 1024.7
20260508035228 55 157 0.0 0.0 0.00 0.00 0.00 73 1024.7
20260508034228 56 157 0.0 0.0 0.00 0.00 0.00 72 1024.6
20260508033227 56 157 0.0 0.0 0.00 0.00 0.00 71 1024.6
20260508031229 58 157 0.0 0.0 0.00 0.00 0.00 68 1024.4
20260508030227 58 157 0.0 0.0 0.00 0.00 0.00 66 1024.5
20260508025228 59 157 0.0 0.0 0.00 0.00 0.00 63 1024.3
20260508024226 59 157 0.0 0.0 0.00 0.00 0.00 63 1024.3
20260508023227 60 157 0.0 0.0 0.00 0.00 0.00 60 1024.2
20260508022326 61 157 0.0 0.0 0.00 0.00 0.00 59 1024.2
20260508021327 61 157 0.0 0.0 0.00 0.00 0.00 58 1024.2
20260508020329 62 157 0.0 0.0 0.00 0.00 0.00 58 1024.2
20260508015327 63 157 0.0 0.0 0.00 0.00 0.00 58 1024.3
20260508014328 63 157 0.0 0.0 0.00 0.00 0.00 59 1024.2
20260508013328 64 157 0.0 0.0 0.00 0.00 0.00 59 1024.1
20260508012328 64 157 0.0 0.0 0.00 0.00 0.00 59 1024.0
20260508011328 64 157 0.0 0.9 0.00 0.00 0.00 59 1024.0
20260508005329 65 150 0.0 0.9 0.00 0.00 0.00 57 1024.3
20260508004329 66 164 1.7 2.6 0.00 0.00 0.00 55 1024.2
20260508003328 66 157 0.0 0.0 0.00 0.00 0.00 54 1024.1
20260508002327 66 135 0.0 0.9 0.00 0.00 0.00 53 1024.1
20260508001329 66 225 0.0 1.7 0.00 0.00 0.00 51 1024.1
20260508000327 67 185 0.0 0.9 0.00 0.00 0.00 49 1024.1
20260507235327 67 180 2.6 4.3 0.00 0.00 0.00 50 1024.1
20260507234328 67 210 0.0 0.0 0.00 0.00 0.00 48 1024.0
20260507233327 68 157 0.0 0.9 0.00 0.00 0.00 45 1024.1
20260507231326 68 187 0.0 0.9 0.00 0.00 0.00 46 1024.2
20260507225343 69 180 0.0 0.0 0.00 0.00 0.00 45 1024.5
20260507223328 69 284 0.0 1.7 0.00 0.00 0.00 44 1024.5
20260507222344 69 169 0.9 1.7 0.00 0.00 0.00 45 1024.6
20260507221428 69 126 0.0 1.7 0.00 0.00 0.00 45 1024.7
20260507220429 70 135 0.0 0.0 0.00 0.00 0.00 45 1024.7
20260507215427 70 130 0.0 0.9 0.00 0.00 0.00 46 1024.7
20260507214427 70 187 2.6 4.3 0.00 0.00 0.00 45 1024.8
20260507213526 71 80 0.9 2.6 0.00 0.00 0.00 45 1024.9
20260507212529 70 225 0.0 0.0 0.00 0.00 0.00 45 1024.9
20260507211545 71 126 0.0 0.9 0.00 0.00 0.00 44 1024.9
20260507210543 71 185 0.0 1.7 0.00 0.00 0.00 43 1024.9
20260507204628 73 88 0.0 0.9 0.00 0.00 0.00 43 1024.8
20260507203627 74 180 0.9 2.6 0.00 0.00 0.00 42 1024.9
20260507202627 75 292 0.0 0.9 0.00 0.00 0.00 41 1025.0
20260507201627 74 142 0.0 1.7 0.00 0.00 0.00 40 1024.9
20260507200626 75 174 3.5 4.3 0.00 0.00 0.00 38 1024.9
20260507195627 75 135 0.9 1.7 0.00 0.00 0.00 39 1024.9
20260507194727 74 39 0.0 2.6 0.00 0.00 0.00 39 1024.9
20260507193728 75 221 0.9 1.7 0.00 0.00 0.00 39 1024.9
20260507192727 76 167 0.0 0.9 0.00 0.00 0.00 37 1025.0
20260507191727 76 135 0.0 0.9 0.00 0.00 0.00 34 1025.1
20260507190827 75 315 0.0 0.0 0.00 0.00 0.00 35 1025.1
20260507184828 75 202 0.0 0.9 0.00 0.00 0.00 33 1025.2
20260507183828 74 93 0.0 0.0 0.00 0.00 0.00 34 1025.3
20260507182826 73 315 0.0 0.9 0.00 0.00 0.00 36 1025.3
20260507181826 73 200 0.0 0.9 0.00 0.00 0.00 38 1025.3
20260507180925 72 12 0.9 5.2 0.00 0.00 0.00 40 1025.3
20260507175927 72 157 0.0 0.0 0.00 0.00 0.00 39 1025.3
20260507174928 73 163 0.9 1.7 0.00 0.00 0.00 39 1025.3
20260507172927 70 157 0.0 0.9 0.00 0.00 0.00 41 1025.2
20260507171927 69 202 0.0 0.0 0.00 0.00 0.00 45 1025.3
20260507170942 70 180 0.0 2.6 0.00 0.00 0.00 47 1025.2
20260507165927 69 157 1.7 1.7 0.00 0.00 0.00 49 1025.2
20260507164927 68 157 0.0 0.9 0.00 0.00 0.00 50 1025.3
20260507163927 67 135 0.9 0.9 0.00 0.00 0.00 52 1025.3
20260507162928 66 135 0.9 1.7 0.00 0.00 0.00 54 1025.3
20260507161927 64 135 0.0 0.0 0.00 0.00 0.00 58 1025.3
20260507160926 61 157 0.0 0.0 0.00 0.00 0.00 59 1025.3
20260507155026 58 135 0.0 0.9 0.00 0.00 0.00 64 1025.2
20260507154028 57 45 0.0 0.0 0.00 0.00 0.00 64 1025.3
20260507153028 55 45 0.0 0.0 0.00 0.00 0.00 68 1025.0
20260507152044 54 45 0.0 0.0 0.00 0.00 0.00 69 1025.0
20260507151027 52 45 0.0 0.0 0.00 0.00 0.00 69 1025.0
20260507150030 51 45 0.0 0.0 0.00 0.00 0.00 74 1025.0
20260507145028 50 45 0.0 0.0 0.00 0.00 0.00 77 1024.9
20260507144035 49 45 0.0 0.0 0.00 0.00 0.00 77 1024.9
20260507143126 49 45 0.0 0.0 0.00 0.00 0.00 76 1024.9
20260507142128 48 45 0.0 0.0 0.00 0.00 0.00 76 1024.9
20260507141126 47 45 0.0 0.0 0.00 0.00 0.00 76 1024.8
20260507140130 47 45 0.0 0.0 0.00 0.00 0.00 76 1024.8
20260507135226 47 45 0.0 0.0 0.00 0.00 0.00 74 1024.7
20260507134226 47 45 0.0 0.0 0.00 0.00 0.00 73 1024.5
20260507133227 47 45 0.0 0.0 0.00 0.00 0.00 72 1024.4
20260507131227 47 45 0.0 0.0 0.00 0.00 0.00 72 1024.2
20260507131128 47 45 0.0 0.0 0.00 0.00 0.00 72 1024.1
20260507130127 47 45 0.0 0.0 0.00 0.00 0.00 72 1024.2
20260507125126 47 45 0.0 0.0 0.00 0.00 0.00 73 1024.2
20260507124226 47 45 0.0 0.0 0.00 0.00 0.00 73 1024.3
20260507122226 47 45 0.0 0.0 0.00 0.00 0.00 74 1024.1
20260507120229 47 45 0.0 0.0 0.00 0.00 0.00 72 1024.1
20260507115227 47 45 0.0 0.0 0.00 0.00 0.00 70 1024.0
20260507114229 47 45 0.0 0.0 0.00 0.00 0.00 69 1024.2
20260507113226 48 45 0.0 0.0 0.00 0.00 0.00 68 1024.2
20260507112228 48 45 0.0 0.0 0.00 0.00 0.00 67 1024.1
20260507111326 48 45 0.0 0.0 0.00 0.00 0.00 66 1024.1
20260507110329 48 45 0.0 0.0 0.00 0.00 0.00 68 1024.1
20260507105329 47 45 0.0 0.0 0.00 0.00 0.00 67 1024.2
20260507104330 47 45 0.0 0.0 0.00 0.00 0.00 67 1024.1
20260507103326 47 45 0.0 0.0 0.00 0.00 0.00 68 1024.3
20260507102343 48 45 0.0 0.0 0.00 0.00 0.00 67 1024.2
20260507101328 48 45 0.0 0.0 0.00 0.00 0.00 69 1024.3
20260507100328 47 45 0.0 0.0 0.00 0.00 0.00 70 1024.2
20260507095326 47 45 0.0 0.0 0.00 0.00 0.00 76 1024.3
20260507094426 48 45 0.0 0.0 0.00 0.00 0.00 75 1024.2
20260507093426 48 45 0.0 0.0 0.00 0.00 0.00 74 1024.2
20260507092427 48 45 0.0 0.0 0.00 0.00 0.00 77 1024.3
20260507091427 47 45 0.0 0.0 0.00 0.00 0.00 85 1024.4
20260507085428 47 45 0.0 0.0 0.00 0.00 0.00 92 1024.4
20260507084526 47 45 0.0 0.0 0.00 0.00 0.00 94 1024.5
20260507083626 48 45 0.0 0.0 0.00 0.00 0.00 94 1024.6